Wind_Speed
20 21 18 16 17 23 24 24 23 22 22 22 21 20 18 17 19 20 21 22 23 22 21 20 19 18 17 16 15 16 17 17 18 20 21 21 21 20
19 20 19 19 18 18 20 24 26 28 27 25 25 25 22 21 20 18 19 19 20 21 21 20 20 20 19 18 19 19 19 19 18 17 17 17 18 19
17 17 16 16 17 18 21 23 27 29 28 29 28 28 25 24 23 22 21 21 21 22 22 22 22 22 22 22 22 21 20 19 18 18 18 18 19 20
12 13 16 17 18 17 18 17 21 27 29 31 30 30 26 25 21 24 24 24 24 24 25 24 25 25 24 23 22 22 21 20 20 20 19 20 20 20
13 14 16 16 16 21 24 23 22 25 31 35 33 29 27 26 26 26 25 24 25 25 25 25 24 24 24 23 22 23 23 23 23 22 22 23 23 24
19 19 20 20 19 21 24 26 29 28 31 37 40 33 27 26 28 29 26 24 24 25 27 27 25 25 25 25 25 26 25 25 24 24 25 26 27 27
22 22 23 23 23 23 24 25 27 28 30 35 40 40 33 32 31 30 27 25 25 27 28 29 28 29 28 27 27 27 28 27 27 26 26 27 29 29
24 23 23 24 24 23 21 22 23 27 33 38 44 42 36 35 33 30 27 25 28 30 28 29 30 30 30 30 31 31 30 30 30 30 30 30 31 31
25 26 26 26 25 25 23 22 22 22 25 34 43 46 43 36 35 32 30 29 30 30 31 32 32 33 33 33 34 35 35 34 35 35 35 34 35 35
24 26 26 26 28 29 26 24 22 24 24 28 37 39 39 38 40 38 31 28 29 32 33 33 32 33 32 33 33 34 34 35 36 37 37 37 37 37
23 24 26 27 28 30 29 27 25 23 23 25 30 32 34 36 34 33 32 30 29 30 32 32 32 32 30 31 32 33 35 36 37 37 36 37 36 35
24 24 25 27 28 28 28 27 25 24 20 19 22 21 20 25 28 31 34 33 32 32 34 33 34 33 31 33 35 35 35 36 36 36 35 36 36 35
30 28 27 26 26 27 27 25 24 24 22 21 21 22 25 24 22 23 27 29 29 31 33 35 35 37 34 34 37 37 38 39 39 38 37 37 37 38
39 35 31 29 28 26 23 23 23 25 26 25 26 27 27 28 27 29 31 31 31 31 33 36 38 39 39 39 41 43 43 42 41 41 42 42 42 41
37 37 35 31 29 26 24 24 24 24 23 25 26 26 27 29 29 30 31 33 34 34 34 35 37 38 37 38 40 43 45 45 45 46 47 48 47 45
25 29 33 30 26 25 23 22 22 22 21 21 23 24 24 24 24 25 26 28 29 29 31 33 36 37 37 36 34 34 38 41 42 44 46 46 46 45
24 24 26 26 24 24 23 22 21 20 20 18 17 18 19 21 23 25 26 28 30 31 31 31 32 32 34 35 36 39 41 42 42 42 44 45 45 46
18 18 19 21 22 22 22 20 18 17 15 15 15 17 18 20 23 26 27 29 31 32 32 31 29 29 31 33 36 39 41 44 46 47 49 49 49 51
8 11 14 15 18 21 22 19 16 14 15 17 20 21 23 24 26 27 29 31 32 34 36 36 34 32 32 33 35 39 40 41 41 42 48 51 49 49
4 8 12 15 16 15 14 12 13 15 16 17 18 19 20 22 25 27 29 30 32 34 36 37 37 36 37 38 40 41 44 44 43 42 41 42 42 45
5 12 15 15 14 11 9 7 9 11 13 14 16 18 21 24 25 27 28 28 30 31 32 33 33 35 36 38 39 41 43 45 46 45 45 43 39 38
4 4 4 3 4 4 5 6 9 12 15 17 20 22 23 25 26 27 28 29 30 31 32 33 34 36 37 38 38 39 40 41 43 45 45 45 42 38
10 10 9 8 5 2 1 4 7 10 13 15 17 19 22 24 27 29 31 32 32 32 32 33 34 36 37 39 39 39 39 39 40 41 42 44 43 42
Wind_Direction
255 256 259 262 241 235 222 219 222 226 232 232 234 231 230 230 229 229 226 225 227 231 233 234 235 236 239 244 248 253 257 258 258 259 260 260 259 256
257 255 255 259 247 245 244 235 229 229 235 237 237 236 231 231 231 229 229 227 226 228 229 230 232 236 240 245 248 250 251 249 249 252 256 256 255 254
254 252 248 244 243 242 245 245 238 232 233 237 241 238 233 233 233 233 233 233 232 231 231 233 235 238 241 244 247 248 249 251 255 257 257 258 260 261
251 245 242 235 246 242 234 245 244 235 231 233 237 238 231 230 230 236 232 234 236 237 238 238 238 240 244 247 249 251 251 252 254 256 259 261 263 267
254 248 244 239 247 240 238 250 254 246 237 235 229 230 229 231 232 236 233 234 236 239 242 242 241 242 245 249 253 256 255 253 252 253 257 261 262 265
258 256 255 254 256 254 248 254 252 254 244 233 226 222 227 231 237 246 240 239 241 241 242 244 244 245 247 251 253 253 252 252 253 255 258 261 262 265
255 252 254 257 260 259 256 256 252 250 246 234 225 221 229 236 240 242 242 242 246 246 244 244 246 248 249 250 251 253 254 254 256 258 259 261 263 267
254 251 251 253 257 258 255 251 251 246 245 232 224 223 224 232 231 236 240 241 247 250 249 247 248 252 253 252 252 253 257 260 260 259 259 260 262 266
258 256 253 253 255 254 253 249 245 242 246 235 225 217 223 228 232 236 239 244 249 248 249 252 252 255 256 258 258 257 258 260 260 259 260 261 264 264
262 262 260 259 257 255 253 249 244 240 247 244 229 224 228 235 232 228 235 243 251 250 250 253 253 256 258 261 260 259 258 258 260 262 263 263 263 263
263 262 262 260 256 255 253 250 246 242 243 248 236 233 236 232 226 229 236 245 246 245 246 250 253 252 253 255 256 256 257 259 261 262 263 264 262 262
262 261 258 256 255 255 254 251 248 247 244 236 242 247 237 225 230 238 240 241 242 243 247 251 255 255 254 255 256 255 256 258 259 259 259 259 260 261
264 262 260 259 257 255 257 255 250 248 244 235 231 233 244 243 242 241 240 242 247 250 252 253 252 255 254 253 256 257 258 259 260 259 259 258 258 260
260 258 256 257 256 254 254 255 250 247 244 242 241 237 240 244 246 245 245 248 251 252 253 255 255 255 254 250 253 256 259 259 260 261 263 261 260 261
254 252 251 251 253 250 246 249 248 243 243 246 246 245 246 248 248 249 250 251 253 257 259 260 260 260 260 259 258 259 260 259 259 261 263 263 263 264
247 244 243 244 247 244 236 238 244 243 245 249 247 244 244 245 246 246 249 253 256 258 260 263 264 262 260 260 259 260 259 264 266 267 268 266 263 264
239 243 236 234 238 235 228 230 239 241 245 244 237 236 241 246 248 249 251 253 255 260 265 266 265 263 261 259 259 263 261 261 263 269 270 264 262 265
222 224 219 226 228 222 220 220 224 226 233 233 237 244 251 257 260 260 259 259 261 265 268 270 271 269 265 261 262 265 264 267 270 268 264 264 266 267
199 210 212 211 212 211 208 211 222 232 240 249 254 258 263 267 269 267 266 266 265 266 267 269 269 268 269 271 271 270 270 271 273 269 263 265 267 266
167 191 181 173 178 187 196 212 234 247 256 264 266 267 271 274 275 274 272 271 271 270 269 270 271 272 271 270 270 272 273 273 273 274 274 273 269 262
107 138 145 150 169 193 221 247 262 265 266 268 270 274 278 281 283 283 283 282 280 279 278 278 278 277 276 276 275 273 272 272 273 273 273 272 272 267
46 72 94 116 155 204 249 275 278 272 269 270 277 284 288 290 291 291 289 287 286 284 283 283 281 279 278 278 278 277 276 273 270 269 269 268 267 266
113 111 109 108 109 119 258 281 286 291 294 297 299 298 296 295 294 293 290 288 285 284 283 282 279 277 276 276 276 276 276 275 273 271 268 267 265 262
Height
5795 5797 5799 5801 5804 5808 5812 5816 5818 5819 5821 5824 5828 5829 5829 5830 5832 5835 5838 5841 5843 5845 5847 5848 5850 5852 5853 5854 5855 5858 5859 5860 5861 5861 5862 5863 5863 5864
5790 5793 5795 5796 5798 5801 5806 5809 5812 5815 5817 5820 5824 5826 5825 5826 5827 5830 5833 5836 5838 5840 5842 5844 5845 5847 5848 5850 5851 5853 5855 5856 5857 5857 5857 5858 5859 5860
5786 5788 5791 5792 5794 5796 5799 5803 5806 5808 5811 5814 5817 5820 5821 5822 5823 5825 5827 5830 5833 5835 5837 5838 5841 5842 5844 5845 5846 5848 5849 5851 5852 5852 5853 5854 5855 5856
5782 5784 5786 5788 5791 5792 5795 5797 5799 5802 5804 5808 5811 5813 5815 5817 5819 5821 5823 5825 5827 5830 5832 5834 5835 5837 5839 5840 5841 5842 5844 5845 5846 5847 5848 5849 5849 5849
5780 5781 5782 5784 5786 5787 5789 5790 5792 5794 5797 5800 5803 5805 5808 5811 5813 5815 5817 5819 5822 5824 5826 5827 5829 5831 5833 5834 5835 5837 5838 5840 5841 5841 5842 5843 5843 5844
5774 5776 5777 5780 5781 5782 5782 5783 5784 5786 5789 5792 5795 5798 5801 5803 5806 5809 5811 5813 5815 5817 5819 5821 5822 5825 5827 5829 5831 5832 5833 5834 5834 5835 5836 5837 5837 5837
5768 5769 5771 5773 5775 5776 5776 5776 5776 5777 5779 5783 5786 5791 5794 5797 5800 5802 5805 5807 5809 5810 5813 5815 5817 5818 5820 5823 5825 5826 5826 5827 5828 5829 5830 5830 5831 5831
5762 5763 5765 5766 5767 5768 5768 5769 5769 5769 5770 5774 5778 5783 5786 5789 5792 5795 5799 5802 5802 5805 5806 5808 5810 5810 5812 5815 5817 5819 5819 5820 5821 5822 5823 5823 5823 5823
5755 5756 5757 5759 5760 5761 5762 5763 5764 5763 5764 5766 5769 5774 5778 5781 5784 5788 5791 5793 5795 5797 5798 5798 5801 5801 5804 5806 5808 5810 5811 5811 5813 5814 5814 5815 5815 5814
5748 5749 5750 5751 5752 5753 5755 5756 5758 5759 5761 5762 5765 5767 5769 5773 5777 5780 5783 5785 5786 5789 5789 5790 5793 5795 5797 5797 5799 5801 5802 5803 5804 5805 5805 5805 5806 5806
5741 5742 5743 5744 5745 5746 5747 5749 5750 5752 5755 5756 5758 5761 5762 5765 5769 5773 5774 5776 5779 5780 5781 5783 5783 5786 5789 5789 5789 5791 5792 5793 5794 5795 5795 5795 5796 5797
5733 5734 5734 5735 5737 5738 5739 5742 5744 5745 5749 5751 5752 5754 5756 5757 5760 5763 5766 5768 5771 5772 5771 5773 5773 5776 5778 5778 5778 5781 5781 5782 5783 5784 5784 5785 5785 5786
5724 5725 5726 5728 5729 5731 5732 5734 5737 5739 5742 5745 5747 5748 5750 5752 5753 5756 5758 5760 5762 5763 5763 5763 5764 5765 5767 5768 5766 5768 5770 5771 5772 5772 5773 5774 5774 5775
5713 5715 5717 5719 5721 5724 5727 5728 5730 5732 5735 5737 5740 5741 5743 5745 5747 5749 5751 5752 5754 5755 5755 5754 5754 5755 5756 5757 5757 5757 5758 5759 5761 5761 5761 5762 5763 5764
5700 5703 5707 5710 5713 5717 5719 5721 5723 5726 5728 5730 5732 5734 5735 5737 5739 5741 5743 5744 5745 5746 5746 5745 5745 5745 5744 5746 5747 5746 5746 5747 5748 5749 5749 5750 5751 5752
5688 5691 5696 5701 5706 5710 5712 5715 5717 5719 5722 5725 5726 5727 5729 5731 5733 5733 5734 5734 5734 5735 5736 5736 5735 5734 5735 5735 5736 5736 5735 5735 5734 5734 5736 5738 5738 5739
5680 5683 5688 5694 5698 5702 5706 5710 5712 5714 5717 5719 5720 5722 5724 5725 5726 5726 5726 5726 5727 5726 5726 5725 5724 5723 5723 5725 5725 5725 5725 5725 5725 5724 5724 5725 5725 5726
5674 5678 5683 5688 5692 5696 5701 5705 5708 5710 5713 5715 5717 5718 5719 5719 5721 5721 5720 5720 5719 5718 5717 5716 5714 5713 5712 5712 5713 5713 5713 5713 5711 5710 5711 5712 5713 5712
5674 5677 5681 5685 5689 5692 5696 5701 5705 5708 5710 5711 5712 5713 5712 5712 5713 5712 5711 5711 5709 5708 5706 5705 5704 5702 5701 5702 5702 5701 5700 5699 5698 5696 5696 5697 5697 5698
5677 5678 5681 5684 5687 5691 5696 5700 5702 5704 5705 5706 5707 5707 5706 5705 5705 5704 5702 5701 5700 5698 5696 5694 5692 5691 5689 5689 5690 5688 5686 5686 5685 5684 5684 5683 5683 5684
5678 5680 5683 5686 5689 5692 5695 5698 5700 5701 5702 5702 5702 5701 5700 5699 5697 5696 5693 5691 5689 5687 5684 5682 5680 5678 5677 5676 5675 5674 5672 5672 5671 5671 5671 5671 5671 5671
5680 5681 5683 5686 5689 5692 5694 5696 5697 5697 5698 5698 5697 5696 5694 5692 5689 5686 5684 5681 5678 5676 5674 5671 5669 5667 5666 5665 5663 5661 5659 5658 5657 5657 5656 5656 5657 5658
5681 5684 5686 5688 5690 5692 5694 5695 5695 5695 5694 5693 5691 5689 5687 5684 5681 5677 5674 5671 5668 5665 5663 5660 5658 5656 5653 5652 5650 5648 5646 5644 5643 5642 5642 5642 5643 5643